Showing default

ABS 6 (LMI 1), 25924

Orbit data source: Space-Track

ABS 6 (LMI 1), 25924 is an Emirian payload satellite in GEO that was launched on Sun, 26 Sep 1999 UTC via a PROTON-K/DM-2M launch vehicle from the Tyuratam Missile And Space Complex (TTMTR). Payload-class satellites include a variety of spacecraft equipped with specific instruments for various scientific and technological missions. These include communications satellites like Starlink; space stations such as the ISS; scientific satellites like the Hubble; Earth observation satellites from companies like Planet Labs, Umbra, and HawkEye 360; GPS; miniature CubeSats for education and research; and military/defense satellites.

Not visible in the next 10 days
Identifier
25924, 1999-053A
Orbit
GEO
Last TLE update
8 hours ago
Origin
Manufacturer
LMCSS
Mission
Operational Commercial Communications
Bus & Motor
A2100, LEROS 1C
Mass
3,740 kg wet, 1,730 kg dry
Launch date (UTC)
1999-09-26 (26 years ago)
Launch vehicle
PROTON-K/DM-2M
Launch site
Tyuratam Missile And Space Complex (TTMTR)
Object type
Payload
Rocket body
Debris
Shape & HBR
Box + 2 Pan, 21 m
Radar Cross Section
18.290 m², Large (>1 m²)

Expand to show TLE details & history

TLE from 8 hours ago
0 ABS 6 (LMI 1)
1 25924U 99053A   25186.88183632 -.00000101  00000-0  00000-0 0  9992
2 25924   0.0490 275.8606 0003798 195.4082 289.3600  1.00278645 94360
Epoch: 2025-07-05T21:09Z
TLE epoch observation values (Epoch: 2025-07-05T21:09:50.658Z)
Latitude
0.04614°
Longitude
159.01518°
Altitude
35,778.8 km
Speed
3.075 km/s
True Right ascension
02h 42m 21s
True Declination
0° 02' 46"
Sunlit
Object was in daylight at epoch
Visualization orbit readout
Latitude
-0.02842°
Longitude
-79.1028°
Altitude
35,774.119 km
Speed
3.076 km/s
Apparent Right ascension
10h 23m 48s
Apparent Declination
-5° 26' 43"
Sunlit
Object is in daylight
Visualization observer readout
Local Sidereal Time
17:13:01
Azimuth
273.725° WNW
Elevation
-12.92°
Doppler factor
1
Orbital elements
Apogee altitude
35,801.756 km
Perigee altitude
35,769.729 km
Semi-major axis
42,163.879 km
Eccentricity
0.00038
Inclination
0.049°
RAAN
275.8606°
Arg. of periapsis
195.4082°
True anomaly
Unknown
Mean anomaly
289.36°
Eccentric anomaly
Unknown
Mean motion
0.25069 °/min
Orbital period
1,436.05 mins
BSTAR
0
Loading historical data...
25924 neighbors
Loading maneuver chart data...
Loading SW <> Apogee altitude chart data...
Loading historical data...
Loading historical data...
Loading historical data...
Loading historical data...
Loading historical data...
Loading historical data...
Loading historical data...
Other satellites on launch #53 in the year 1999 (1999-09-26 UTC)

ABS 6 (LMI 1) Visibility

Observer location: undefined°, undefined°

ABS 6 (LMI 1) is likely not visible in the next few days
Span
Click to sort rows by Start time (UTC) header in descending order
Start Az.
Max El. time (UTC)
Max El. Az.
Max El.
End time (UTC)
End Az.
|